Regional Weather Roundup
Issued by NWS Lake Charles, LA

Current Version | Previous Version | Text Only | Print | Product List | Glossary On
Versions: 1 2 3 4 5 6 7 8 9 10 11 12 13 14 15 16 17 18 19 20 21 22 23 24 25 26 27 28
000
ASUS44 KLCH 230410
RWRLCH
RWRLCH
REGIONAL WEATHER ROUNDUP
NATIONAL WEATHER SERVICE LAKE CHARLES LA
1100 PM CDT WED OCT 22 2014

Note: "fair" indicates few or no clouds below 12,000 feet with no
significant weather and/or obstructions to visibility.


ACROSS SOUTHEAST TEXAS

CITY           SKY/WX    TMP DP  RH WIND       PRES   REMARKS
BEAUMONT       CLEAR     67  58  72 VRB3      30.10R
BEAUMONT CITY    N/A     63  58  84 NE3       30.11S
ORANGE         CLEAR     64  56  74 N3        30.12R
JASPER         CLEAR     60  55  82 NE3       30.15S
$$

ACROSS CENTRAL LOUISIANA

CITY           SKY/WX    TMP DP  RH WIND       PRES   REMARKS
LEESVILLE      CLEAR     62  53  74 N7        30.13R
FULLERTON        N/A     60  54  80 VRB3      30.11R
ALEXANDRIA INT CLEAR     59  53  80 N7        30.12R
ESLER FIELD    CLEAR     51  50  96 CALM      30.13R
DERIDDER         N/A     60  53  78 N3        30.14R
OAKDALE        CLEAR     53  51  92 CALM      30.12R
OPELOUSAS        N/A     59  52  76 NE5       30.10S
$$

ACROSS SOUTHWEST AND SOUTH CENTRAL LOUISIANA

CITY           SKY/WX    TMP DP  RH WIND       PRES   REMARKS
SULPHUR        CLEAR     66  53  61 N3        30.11R
LAKE CHARLES   CLEAR     64  53  67 NE8       30.10R
CHENNAULT INT  CLEAR     62  54  74 N6        30.11R
CAMERON PHI      N/A     66  57  72 NE7       30.12S
DEQUINCY         N/A     59  55  86 CALM      30.12R
JENNINGS         N/A     59  54  83 CALM      30.10R
LAFAYETTE      CLEAR     61  54  77 N7        30.09S
NEW IBERIA     CLEAR     62  56  80 N8        30.09R
ABBEVILLE        N/A     60  55  81 N5        30.09R
PATTERSON      CLEAR     59  57  94 CALM      30.10S
SALT POINT       N/A     65  59  81 CALM      30.07R
$$

SELECTED SITES ACROSS THE REGION

CITY           SKY/WX    TMP DP  RH WIND       PRES   REMARKS
HOUSTON BUSH   CLEAR     64  59  83 N3        30.10R
HOUSTON HOBBY  PTCLDY    65  61  87 CALM      30.09S
GALVESTON      CLEAR     71  64  78 NE5       30.10R
COLLEGE STAT   MOCLDY    69  57  65 E5        30.10S
CONROE         CLEAR     59  57  93 CALM      30.11S
HUNTSVILLE     PTCLDY    63  57  81 CALM      30.11S
LUFKIN         CLEAR     62  54  74 NE6       30.12S
SHREVEPORT     CLEAR     62  53  72 E7        30.14F
MONROE         CLEAR     55  50  83 N5        30.17R
NATCHEZ MS     CLEAR     52  48  87 CALM      30.14S
BATON ROUGE    CLEAR     60  52  74 N6        30.10R
N.O. INTL ARPT CLEAR     70  53  54 NE12      30.08R
SLIDELL        CLEAR     55  51  86 N5        30.09R
$$

MARINE REPORTS

STATION/POSITION TIME  TEMP    WIND        PRES    VSBY  WAVE
                       AIR SEA DIR/SP/G                  HT/PER
                 (UTC) (F)     (DEG/KT/KT) (MB)    (MI)  (FT/S)
BUOY 30 S HIGH I 0400   75 78   50/  6/  8 1018.5R         3/ 7
SEA RIM ST PARK  0400   67      60/  7/  8 1019.6R
PORT ARTHUR      0400      76   40/  2/  5 1019.2R
SABINE PASS N    0400   67 75   50/  6/  8 1019.1S
TEXAS POINT      0400   67 75   40/  8/  9 1019.1S
CALCASIEU PASS   0400   68 75   50/  7/  9   N/A
LK CHARLES BEACH 0400   67 77              1019.3R
MARSH ISLAND     NOT AVBL
FRESH WATER LOCK 0400   65 75   10/  5/  7 1018.2S
AMERADA PASS     0400   67 72   60/  1/  3 1018.1S
$$



USA.gov is the U.S. government's official web portal to all federal, state and local government web resources and services.